CW1334 Weather Reports


Display with metric or nautical units.
time (UTC)temp
F
wind
direction
speed
MPH
gust
MPH
rain 1hr
in
rain 24hr
in
rain mn
in
humidity
%
barometer
mb
20260510073053 47 339 0.0 2.0 0.00 0.00 0.00 75 1018.0
20260510071552 47 339 1.0 4.0 0.00 0.00 0.00 74 1018.0
20260510070054 48 339 2.0 9.0 0.00 0.00 0.00 71 1018.0
20260510064604 50 141 0.0 2.0 0.00 0.00 0.00 73 1018.1
20260510063052 50 141 1.0 5.0 0.00 0.00 0.00 73 1017.9
20260510061556 50 131 4.0 9.0 0.00 0.00 0.00 73 1017.8
20260510060055 50 138 7.0 11.0 0.00 0.00 0.00 73 1017.8
20260510054552 50 154 5.0 9.0 0.00 0.00 0.00 72 1017.9
20260510053056 51 140 5.0 11.0 0.00 0.00 0.00 71 1017.9
20260510051557 52 114 6.0 12.0 0.00 0.00 0.00 70 1017.8
20260510050056 52 117 7.0 11.0 0.00 0.00 0.00 68 1017.9
20260510044628 53 128 6.0 11.0 0.00 0.00 0.00 67 1018.0
20260510043054 53 150 5.0 12.0 0.00 0.00 0.00 66 1017.7
20260510041553 54 133 6.0 9.0 0.00 0.00 0.00 64 1017.7
20260510040053 54 130 6.0 11.0 0.00 0.00 0.00 62 1017.6
20260510034555 55 126 7.0 13.0 0.00 0.00 0.00 60 1017.4
20260510033059 56 136 7.0 11.0 0.00 0.00 0.00 59 1017.3
20260510031557 58 139 5.0 9.0 0.00 0.00 0.00 52 1017.1
20260510030054 60 147 3.0 7.0 0.00 0.00 0.00 48 1016.7
20260510024554 62 147 2.0 5.0 0.00 0.00 0.00 46 1016.7
20260510023057 63 147 2.0 5.0 0.00 0.00 0.00 44 1016.4
20260510021553 64 147 2.0 5.0 0.00 0.00 0.00 43 1016.4
20260510020055 64 139 2.0 5.0 0.00 0.00 0.00 42 1016.5
20260510014554 64 139 2.0 4.0 0.00 0.00 0.00 42 1016.3
20260510013052 64 185 2.0 6.0 0.00 0.00 0.00 40 1016.5
20260510011558 65 177 2.0 6.0 0.00 0.00 0.00 40 1016.4
20260510010128 65 202 2.0 6.0 0.00 0.00 0.00 40 1016.4
20260510004557 66 160 2.0 6.0 0.00 0.00 0.00 39 1016.6
20260510003051 65 202 3.0 7.0 0.00 0.00 0.00 41 1016.6
20260510001558 64 204 3.0 8.0 0.00 0.00 0.00 41 1016.6
20260510000056 64 220 4.0 9.0 0.00 0.00 0.00 42 1016.6
20260509234621 64 207 6.0 15.0 0.00 0.00 0.00 42 1016.6
20260509233051 65 223 5.0 11.0 0.00 0.00 0.00 40 1016.5
20260509231554 64 271 5.0 8.0 0.00 0.00 0.00 39 1016.4
20260509230054 65 208 4.0 7.0 0.00 0.00 0.00 39 1016.6
20260509224553 65 279 2.0 12.0 0.00 0.00 0.00 38 1016.6
20260509223052 65 214 5.0 7.0 0.00 0.00 0.00 38 1016.6
20260509221555 64 296 3.0 8.0 0.00 0.00 0.00 38 1016.8
20260509214555 64 214 3.0 7.0 0.00 0.00 0.00 39 1017.0
20260509213053 64 224 3.0 8.0 0.00 0.00 0.00 38 1017.1
20260509211556 64 214 1.0 10.0 0.00 0.00 0.00 39 1017.2
20260509210053 63 223 4.0 8.0 0.00 0.00 0.00 39 1017.2
20260509204600 63 192 5.0 11.0 0.00 0.00 0.00 39 1017.2
20260509203124 64 215 2.0 14.0 0.00 0.00 0.00 38 1017.1
20260509201610 67 212 2.0 10.0 0.00 0.00 0.00 35 1016.9
20260509200103 64 0 0.0 4.0 0.00 0.00 0.00 37 1017.0
20260509194554 64 162 3.0 8.0 0.00 0.00 0.00 36 1017.2
20260509193131 63 236 4.0 11.0 0.00 0.00 0.00 36 1017.2
20260509191607 63 311 2.0 8.0 0.00 0.00 0.00 35 1017.3
20260509190051 63 0 2.0 8.0 0.00 0.00 0.00 37 1017.2
20260509184558 63 197 4.0 8.0 0.00 0.00 0.00 37 1017.3
20260509183053 62 0 5.0 9.0 0.00 0.00 0.00 37 1017.3
20260509181600 63 279 2.0 9.0 0.00 0.00 0.00 37 1017.1
20260509180104 62 128 3.0 7.0 0.00 0.00 0.00 38 1017.1
20260509174552 61 71 5.0 11.0 0.00 0.00 0.00 39 1017.1
20260509173102 61 25 6.0 11.0 0.00 0.00 0.00 38 1017.0
20260509171553 61 68 3.0 8.0 0.00 0.00 0.00 39 1017.0
20260509170058 62 83 3.0 7.0 0.00 0.00 0.00 37 1016.8
20260509164602 63 136 2.0 6.0 0.00 0.00 0.00 38 1016.7
20260509163057 64 0 1.0 5.0 0.00 0.00 0.00 37 1016.8
20260509161558 62 0 0.0 5.0 0.00 0.00 0.00 40 1016.6
20260509160055 61 227 2.0 4.0 0.00 0.00 0.00 42 1016.4
20260509154553 61 211 0.0 3.0 0.00 0.00 0.00 41 1016.2
20260509153054 60 0 1.0 4.0 0.00 0.00 0.00 43 1016.2
20260509151604 58 92 1.0 4.0 0.00 0.00 0.00 44 1016.0
20260509150054 57 92 2.0 6.0 0.00 0.00 0.00 46 1015.9
20260509144554 57 51 2.0 4.0 0.00 0.00 0.00 46 1016.0
20260509143055 57 103 2.0 5.0 0.00 0.00 0.00 47 1015.8
20260509141554 54 32 4.0 8.0 0.00 0.00 0.00 50 1015.6
20260509140053 53 61 3.0 8.0 0.00 0.00 0.00 51 1015.4
20260509134556 52 36 4.0 9.0 0.00 0.00 0.00 52 1015.4
20260509133102 52 45 4.0 7.0 0.00 0.00 0.00 54 1015.2
20260509131559 51 360 2.0 3.0 0.00 0.00 0.00 53 1015.0
20260509130105 51 360 0.0 2.0 0.00 0.00 0.00 54 1014.9
20260509124556 50 360 2.0 5.0 0.00 0.00 0.00 54 1014.8
20260509123057 51 26 1.0 5.0 0.00 0.00 0.00 53 1014.7
20260509121555 51 355 3.0 9.0 0.00 0.00 0.00 54 1014.4
20260509120059 51 245 4.0 7.0 0.00 0.00 0.00 54 1013.9
20260509114551 50 0 0.0 6.0 0.00 0.00 0.00 54 1013.9
20260509113052 50 0 1.0 3.0 0.00 0.00 0.00 55 1013.9
20260509111556 51 303 0.0 3.0 0.00 0.00 0.00 54 1013.7
20260509110056 51 0 0.0 2.0 0.00 0.00 0.00 53 1013.5
20260509104554 51 303 0.0 4.0 0.00 0.00 0.00 53 1013.4
20260509103054 51 303 2.0 5.0 0.00 0.00 0.00 53 1013.4
20260509101552 51 303 2.0 5.0 0.00 0.00 0.00 53 1013.2
20260509100052 51 305 3.0 7.0 0.00 0.00 0.00 53 1013.1
20260509094553 51 348 3.0 6.0 0.00 0.00 0.00 53 1012.9
20260509093054 51 348 2.0 4.0 0.00 0.00 0.00 51 1012.8
20260509091600 52 348 2.0 4.0 0.00 0.00 0.00 50 1012.9
20260509090053 53 348 3.0 6.0 0.00 0.00 0.00 50 1012.5
20260509084551 53 321 2.0 4.0 0.00 0.00 0.00 50 1012.4
20260509083054 53 321 3.0 7.0 0.00 0.00 0.00 49 1012.3
20260509081554 54 309 2.0 4.0 0.00 0.00 0.00 48 1012.4
20260509080106 55 309 1.0 7.0 0.00 0.00 0.00 47 1012.2
20260509074557 56 319 4.0 9.0 0.00 0.00 0.00 46 1012.2